Memphis, TN

6:04 PM CST on February 06, 2016 (GMT -0600)
Memphis International

Weather History for KMEM - April, 2013

Change the Weather History Date:

Monday, April 22, 2013

  Actual Average Record
Temperature  
Mean Temperature 62 °F 65 °F  
Max Temperature 75 °F 75 °F 90 °F (1980)
Min Temperature 48 °F 55 °F 39 °F (1993)
Degree Days  
Heating Degree Days 3 3  
Month to date heating degree days 142 118  
Since 1 July heating degree days 2846 2926  
Cooling Degree Days 0 3  
Month to date cooling degree days 55 48  
Year to date cooling degree days 66 68  
Growing Degree Days 12 (Base 50)    
Moisture  
Dew Point 43 °F    
Average Humidity 53    
Maximum Humidity 71    
Minimum Humidity 35    
Precipitation  
Precipitation 0.00 in 0.19 in 2.11 in (1974)
Month to date precipitation 5.38 4.01  
Year to date precipitation 22.33 17.54  
Snow  
Snow 0.00 in 0.00 in - ()
Month to date snowfall 0.0 0.0  
Since 1 July snowfall 0.9 3.8  
Snow Depth 0.00 in    
Sea Level Pressure  
Sea Level Pressure 30.13 in    
Wind  
Wind Speed 8 mph (SE)    
Max Wind Speed 16 mph    
Max Gust Speed 20 mph    
Visibility 10 miles    
Events      
T = Trace of Precipitation, MM = Missing Value Source: NWS Daily Summary

Daily Weather History Graph

Daily Weather History Graph

Search for Another Location

Airport or City:

Trip Planner

Search our weather history database for the weather conditions in past years. The results will help you decide how hot, cold, wet, or windy it might be!

Date:

Astronomy

Apr. 22, 2013 Rise Set
Actual Time 6:18 AM CDT 7:38 PM CDT
Civil Twilight 5:52 AM CDT 8:04 PM CDT
Nautical Twilight 5:20 AM CDT 8:36 PM CDT
Astronomical Twilight 4:47 AM CDT 9:09 PM CDT
Moon 4:33 PM CDT (4/22) 4:05 AM CDT (4/22)
Length of Visible Light 14h 12m
Length of Day
13h 19m
Waxing Gibbous, 88% of the Moon is Illuminated
Apr 22
Waxing Gibbous
Apr 25
Full
May 2
Last Quarter
May 9
New
May 17
First Quarter

Hourly Weather History & Observations

Time (CDT) Temp. Dew Point Humidity Pressure Visibility Wind Dir Wind Speed Gust Speed Precip Events Conditions
12:54 AM 55.0 °F 37.0 °F 51% 30.21 in 10.0 mi NE 4.6 mph - N/A   Clear
1:54 AM 53.1 °F 37.9 °F 57% 30.20 in 10.0 mi ENE 5.8 mph - N/A   Clear
2:54 AM 52.0 °F 37.9 °F 59% 30.18 in 10.0 mi East 3.5 mph - N/A   Clear
3:54 AM 50.0 °F 37.9 °F 63% 30.18 in 10.0 mi East 3.5 mph - N/A   Clear
4:54 AM 48.9 °F 39.0 °F 69% 30.17 in 10.0 mi East 4.6 mph - N/A   Clear
5:54 AM 48.9 °F 39.0 °F 69% 30.17 in 10.0 mi East 4.6 mph - N/A   Clear
6:54 AM 50.0 °F 39.9 °F 68% 30.18 in 10.0 mi East 5.8 mph - N/A   Partly Cloudy
7:54 AM 55.0 °F 43.0 °F 64% 30.18 in 10.0 mi East 4.6 mph - N/A   Partly Cloudy
8:54 AM 61.0 °F 45.0 °F 56% 30.19 in 10.0 mi SE 5.8 mph - N/A   Partly Cloudy
9:54 AM 64.9 °F 45.0 °F 48% 30.20 in 10.0 mi SSE 10.4 mph - N/A   Partly Cloudy
10:54 AM 69.1 °F 45.0 °F 42% 30.19 in 10.0 mi SSE 12.7 mph - N/A   Partly Cloudy
11:54 AM 71.1 °F 44.1 °F 38% 30.17 in 10.0 mi SSE 13.8 mph - N/A   Scattered Clouds
12:54 PM 73.0 °F 46.9 °F 39% 30.16 in 10.0 mi SSE 9.2 mph - N/A   Scattered Clouds
1:54 PM 73.9 °F 46.9 °F 38% 30.12 in 10.0 mi SSE 12.7 mph 18.4 mph N/A   Scattered Clouds
2:54 PM 72.0 °F 46.0 °F 40% 30.10 in 10.0 mi SSE 3.5 mph 16.1 mph N/A   Mostly Cloudy
3:54 PM 73.9 °F 46.0 °F 37% 30.07 in 10.0 mi South 11.5 mph - N/A   Scattered Clouds
4:54 PM 73.0 °F 44.1 °F 35% 30.05 in 10.0 mi SSE 12.7 mph - N/A   Mostly Cloudy
5:54 PM 73.9 °F 45.0 °F 35% 30.04 in 10.0 mi SSE 11.5 mph - N/A   Scattered Clouds
6:54 PM 72.0 °F 45.0 °F 38% 30.03 in 10.0 mi SE 8.1 mph - N/A   Mostly Cloudy
7:54 PM 70.0 °F 46.0 °F 42% 30.03 in 10.0 mi SE 5.8 mph - N/A   Scattered Clouds
8:54 PM 66.9 °F 46.9 °F 49% 30.04 in 10.0 mi SE 5.8 mph - N/A   Scattered Clouds
9:54 PM 66.0 °F 46.9 °F 50% 30.05 in 10.0 mi SE 5.8 mph - N/A   Scattered Clouds
10:54 PM 64.9 °F 46.9 °F 52% 30.05 in 10.0 mi SE 5.8 mph - N/A   Partly Cloudy
11:54 PM 64.0 °F 48.9 °F 58% 30.04 in 10.0 mi SSE 5.8 mph - N/A   Partly Cloudy